Time,TemperatureF,DewpointF,PressureIn,WindDirection,WindDirectionDegrees,WindSpeedMPH,WindSpeedGustMPH,Humidity,HourlyPrecipIn,Conditions,Clouds,dailyrainin,SoftwareType,DateUTC
2013-03-27 00:00:00,48.2,43.6,29.63,North,0,0.0,0.0,84,0.00,,,0.00,WUHU216HW,2013-03-27 07:00:00,
2013-03-27 00:05:00,48.2,43.6,29.63,North,0,0.0,0.0,84,0.00,,,0.00,WUHU216HW,2013-03-27 07:05:00,
2013-03-27 00:30:00,48.2,43.6,29.62,North,0,0.0,0.0,84,0.00,,,0.00,WUHU216HW,2013-03-27 07:30:00,
2013-03-27 00:35:00,48.2,43.6,29.62,North,0,0.0,0.0,84,0.00,,,0.00,WUHU216HW,2013-03-27 07:35:00,
2013-03-27 01:00:00,48.2,43.6,29.61,North,0,0.0,0.0,84,0.00,,,0.00,WUHU216HW,2013-03-27 08:00:00,
2013-03-27 01:05:00,48.2,43.6,29.61,North,0,0.0,0.0,84,0.00,,,0.00,WUHU216HW,2013-03-27 08:05:00,
2013-03-27 01:30:00,47.9,43.6,29.61,North,0,0.0,0.0,85,0.00,,,0.00,WUHU216HW,2013-03-27 08:30:00,
2013-03-27 01:35:00,47.9,43.6,29.61,North,0,0.0,0.0,85,0.00,,,0.00,WUHU216HW,2013-03-27 08:35:00,
2013-03-27 02:00:00,47.5,43.2,29.61,North,0,0.0,0.0,85,0.00,,,0.00,WUHU216HW,2013-03-27 09:00:00,
2013-03-27 02:05:00,47.5,43.2,29.61,North,0,0.0,0.0,85,0.00,,,0.00,WUHU216HW,2013-03-27 09:05:00,
2013-03-27 02:30:00,47.2,42.9,29.60,North,0,0.0,0.0,85,0.00,,,0.00,WUHU216HW,2013-03-27 09:30:00,
2013-03-27 02:35:00,47.2,42.9,29.60,North,0,0.0,0.0,85,0.00,,,0.00,WUHU216HW,2013-03-27 09:35:00,
2013-03-27 03:00:00,46.1,41.9,29.59,North,0,0.0,0.0,85,0.00,,,0.00,WUHU216HW,2013-03-27 10:00:00,
2013-03-27 03:05:00,46.1,41.9,29.59,North,0,0.0,0.0,85,0.00,,,0.00,WUHU216HW,2013-03-27 10:05:00,
2013-03-27 03:30:00,45.2,41.6,29.59,North,0,0.0,0.0,87,0.00,,,0.00,WUHU216HW,2013-03-27 10:30:00,
2013-03-27 03:35:00,45.2,41.6,29.59,North,0,0.0,0.0,87,0.00,,,0.00,WUHU216HW,2013-03-27 10:35:00,
2013-03-27 04:00:00,45.2,41.9,29.59,North,0,0.0,0.0,88,0.00,,,0.00,WUHU216HW,2013-03-27 11:00:00,
2013-03-27 04:05:00,45.2,41.9,29.59,North,0,0.0,0.0,88,0.00,,,0.00,WUHU216HW,2013-03-27 11:05:00,
2013-03-27 04:30:00,44.6,41.3,29.59,North,0,0.0,0.0,88,0.00,,,0.00,WUHU216HW,2013-03-27 11:30:00,
2013-03-27 04:35:00,44.6,41.3,29.59,North,0,0.0,0.0,88,0.00,,,0.00,WUHU216HW,2013-03-27 11:35:00,
2013-03-27 05:00:00,44.1,40.8,29.58,North,0,0.0,0.0,88,0.00,,,0.00,WUHU216HW,2013-03-27 12:00:00,
2013-03-27 05:05:00,44.1,40.8,29.58,North,0,0.0,0.0,88,0.00,,,0.00,WUHU216HW,2013-03-27 12:05:00,
2013-03-27 05:30:00,43.6,40.2,29.58,North,0,0.0,0.0,88,0.00,,,0.00,WUHU216HW,2013-03-27 12:30:00,
2013-03-27 05:35:00,43.6,40.2,29.58,North,0,0.0,0.0,88,0.00,,,0.00,WUHU216HW,2013-03-27 12:35:00,
2013-03-27 06:00:00,43.0,39.7,29.58,North,0,0.0,0.0,88,0.00,,,0.00,WUHU216HW,2013-03-27 13:00:00,
2013-03-27 06:05:00,43.0,39.7,29.58,North,0,0.0,0.0,88,0.00,,,0.00,WUHU216HW,2013-03-27 13:05:00,
2013-03-27 06:30:00,43.2,40.2,29.58,North,0,0.0,0.0,89,0.00,,,0.00,WUHU216HW,2013-03-27 13:30:00,
2013-03-27 06:35:00,43.2,40.2,29.58,North,0,0.0,0.0,89,0.00,,,0.00,WUHU216HW,2013-03-27 13:35:00,
2013-03-27 07:00:00,43.2,40.2,29.58,North,0,0.0,0.0,89,0.00,,,0.00,WUHU216HW,2013-03-27 14:00:00,
2013-03-27 07:05:00,43.2,40.2,29.58,North,0,0.0,0.0,89,0.00,,,0.00,WUHU216HW,2013-03-27 14:05:00,
2013-03-27 07:30:00,43.6,40.6,29.58,North,0,0.0,0.0,89,0.00,,,0.00,WUHU216HW,2013-03-27 14:30:00,
2013-03-27 07:35:00,43.6,40.6,29.58,North,0,0.0,0.0,89,0.00,,,0.00,WUHU216HW,2013-03-27 14:35:00,
2013-03-27 08:00:00,44.5,41.8,29.58,North,0,0.0,0.0,90,0.00,,,0.00,WUHU216HW,2013-03-27 15:00:00,
2013-03-27 08:05:00,44.5,41.8,29.58,North,0,0.0,0.0,90,0.00,,,0.00,WUHU216HW,2013-03-27 15:05:00,
2013-03-27 08:30:00,45.9,43.2,29.59,North,0,0.0,0.0,90,0.00,,,0.00,WUHU216HW,2013-03-27 15:30:00,
2013-03-27 08:35:00,45.9,43.2,29.59,North,0,0.0,0.0,90,0.00,,,0.00,WUHU216HW,2013-03-27 15:35:00,
2013-03-27 09:00:00,47.5,43.8,29.59,North,0,0.0,0.0,87,0.00,,,0.00,WUHU216HW,2013-03-27 16:00:00,
2013-03-27 09:05:00,47.5,43.8,29.59,North,0,0.0,0.0,87,0.00,,,0.00,WUHU216HW,2013-03-27 16:05:00,
2013-03-27 09:30:00,48.8,43.8,29.59,North,0,0.0,0.0,83,0.00,,,0.00,WUHU216HW,2013-03-27 16:30:00,
2013-03-27 09:35:00,48.8,43.8,29.59,North,0,0.0,0.0,83,0.00,,,0.00,WUHU216HW,2013-03-27 16:35:00,
2013-03-27 10:00:00,50.6,44.3,29.59,North,0,0.0,0.0,79,0.00,,,0.00,WUHU216HW,2013-03-27 17:00:00,
2013-03-27 10:05:00,50.6,44.3,29.59,North,0,0.0,0.0,79,0.00,,,0.00,WUHU216HW,2013-03-27 17:05:00,
2013-03-27 10:30:00,51.7,44.4,29.59,North,0,0.0,0.0,76,0.00,,,0.00,WUHU216HW,2013-03-27 17:30:00,
2013-03-27 10:35:00,51.7,44.4,29.59,North,0,0.0,0.0,76,0.00,,,0.00,WUHU216HW,2013-03-27 17:35:00,
2013-03-27 11:00:00,53.6,45.9,29.59,North,0,0.0,0.0,75,0.00,,,0.00,WUHU216HW,2013-03-27 18:00:00,
2013-03-27 11:05:00,53.6,45.9,29.59,North,0,0.0,0.0,75,0.00,,,0.00,WUHU216HW,2013-03-27 18:05:00,
2013-03-27 11:30:00,54.9,46.5,29.59,North,0,0.0,0.0,73,0.00,,,0.00,WUHU216HW,2013-03-27 18:30:00,
2013-03-27 11:35:00,54.9,46.5,29.59,North,0,0.0,0.0,73,0.00,,,0.00,WUHU216HW,2013-03-27 18:35:00,
2013-03-27 12:00:00,55.8,46.3,29.59,North,0,0.0,0.0,70,0.00,,,0.00,WUHU216HW,2013-03-27 19:00:00,
2013-03-27 12:05:00,55.8,46.3,29.59,North,0,0.0,0.0,70,0.00,,,0.00,WUHU216HW,2013-03-27 19:05:00,
2013-03-27 12:30:00,57.8,45.6,29.59,North,0,0.0,0.0,64,0.00,,,0.00,WUHU216HW,2013-03-27 19:30:00,
2013-03-27 12:35:00,57.8,45.6,29.59,North,0,0.0,0.0,64,0.00,,,0.00,WUHU216HW,2013-03-27 19:35:00,
2013-03-27 13:00:00,65.5,50.9,29.58,North,0,0.0,0.0,59,0.00,,,0.00,WUHU216HW,2013-03-27 20:00:00,
2013-03-27 13:05:00,65.5,50.9,29.58,North,0,0.0,0.0,59,0.00,,,0.00,WUHU216HW,2013-03-27 20:05:00,
2013-03-27 13:30:00,62.1,45.7,29.58,North,0,0.0,0.0,55,0.00,,,0.00,WUHU216HW,2013-03-27 20:30:00,
2013-03-27 13:35:00,62.1,45.7,29.58,North,0,0.0,0.0,55,0.00,,,0.00,WUHU216HW,2013-03-27 20:35:00,
2013-03-27 14:00:00,61.0,44.7,29.57,North,0,0.0,0.0,55,0.00,,,0.00,WUHU216HW,2013-03-27 21:00:00,
2013-03-27 14:05:00,61.0,44.7,29.57,North,0,0.0,0.0,55,0.00,,,0.00,WUHU216HW,2013-03-27 21:05:00,
2013-03-27 14:30:00,61.2,45.4,29.56,North,0,0.0,0.0,56,0.00,,,0.00,WUHU216HW,2013-03-27 21:30:00,
2013-03-27 14:35:00,61.2,45.4,29.56,North,0,0.0,0.0,56,0.00,,,0.00,WUHU216HW,2013-03-27 21:35:00,
2013-03-27 15:00:00,61.7,45.8,29.56,North,0,0.0,0.0,56,0.00,,,0.00,WUHU216HW,2013-03-27 22:00:00,
2013-03-27 15:05:00,61.7,45.8,29.56,North,0,0.0,0.0,56,0.00,,,0.00,WUHU216HW,2013-03-27 22:05:00,
2013-03-27 15:30:00,61.9,46.0,29.56,North,0,0.0,0.0,56,0.00,,,0.00,WUHU216HW,2013-03-27 22:30:00,
2013-03-27 15:35:00,61.9,46.0,29.56,North,0,0.0,0.0,56,0.00,,,0.00,WUHU216HW,2013-03-27 22:35:00,
2013-03-27 16:00:00,62.5,46.0,29.55,North,0,0.0,0.0,55,0.00,,,0.00,WUHU216HW,2013-03-27 23:00:00,
2013-03-27 16:05:00,62.5,46.0,29.55,North,0,0.0,0.0,55,0.00,,,0.00,WUHU216HW,2013-03-27 23:05:00,
2013-03-27 16:30:00,62.6,45.7,29.56,North,0,0.0,0.0,54,0.00,,,0.00,WUHU216HW,2013-03-27 23:30:00,
2013-03-27 16:35:00,62.6,45.7,29.56,North,0,0.0,0.0,54,0.00,,,0.00,WUHU216HW,2013-03-27 23:35:00,
2013-03-27 17:00:00,63.0,46.0,29.56,North,0,0.0,0.0,54,0.00,,,0.00,WUHU216HW,2013-03-28 00:00:00,
2013-03-27 17:05:00,63.0,46.0,29.56,North,0,0.0,0.0,54,0.00,,,0.00,WUHU216HW,2013-03-28 00:05:00,
2013-03-27 17:30:00,62.3,45.4,29.56,North,0,0.0,0.0,54,0.00,,,0.00,WUHU216HW,2013-03-28 00:30:00,
2013-03-27 17:35:00,62.3,45.4,29.56,North,0,0.0,0.0,54,0.00,,,0.00,WUHU216HW,2013-03-28 00:35:00,
2013-03-27 18:00:00,61.9,46.0,29.56,North,0,0.0,0.0,56,0.00,,,0.00,WUHU216HW,2013-03-28 01:00:00,
2013-03-27 18:05:00,61.9,46.0,29.56,North,0,0.0,0.0,56,0.00,,,0.00,WUHU216HW,2013-03-28 01:05:00,
2013-03-27 18:30:00,61.4,46.5,29.56,North,0,0.0,0.0,58,0.00,,,0.00,WUHU216HW,2013-03-28 01:30:00,
2013-03-27 18:35:00,61.4,46.5,29.56,North,0,0.0,0.0,58,0.00,,,0.00,WUHU216HW,2013-03-28 01:35:00,
2013-03-27 19:00:00,60.7,46.4,29.57,North,0,0.0,0.0,59,0.00,,,0.00,WUHU216HW,2013-03-28 02:00:00,
2013-03-27 19:05:00,60.7,46.4,29.57,North,0,0.0,0.0,59,0.00,,,0.00,WUHU216HW,2013-03-28 02:05:00,
2013-03-27 19:30:00,59.8,46.4,29.57,North,0,0.0,0.0,61,0.00,,,0.00,WUHU216HW,2013-03-28 02:30:00,
2013-03-27 19:35:00,59.8,46.4,29.57,North,0,0.0,0.0,61,0.00,,,0.00,WUHU216HW,2013-03-28 02:35:00,
2013-03-27 20:00:00,58.1,46.0,29.58,North,0,0.0,0.0,64,0.00,,,0.00,WUHU216HW,2013-03-28 03:00:00,
2013-03-27 20:05:00,58.1,46.0,29.58,North,0,0.0,0.0,64,0.00,,,0.00,WUHU216HW,2013-03-28 03:05:00,
2013-03-27 20:30:00,57.2,46.4,29.60,North,0,0.0,0.0,67,0.00,,,0.00,WUHU216HW,2013-03-28 03:30:00,
2013-03-27 20:35:00,57.2,46.4,29.60,North,0,0.0,0.0,67,0.00,,,0.00,WUHU216HW,2013-03-28 03:35:00,
2013-03-27 21:00:00,56.3,47.4,29.61,North,0,0.0,0.0,72,0.00,,,0.00,WUHU216HW,2013-03-28 04:00:00,
2013-03-27 21:05:00,56.3,47.4,29.61,North,0,0.0,0.0,72,0.00,,,0.00,WUHU216HW,2013-03-28 04:05:00,
2013-03-27 21:30:00,55.1,47.3,29.63,North,0,0.0,0.0,75,0.00,,,0.00,WUHU216HW,2013-03-28 04:30:00,
2013-03-27 21:35:00,55.1,47.3,29.63,North,0,0.0,0.0,75,0.00,,,0.00,WUHU216HW,2013-03-28 04:35:00,
2013-03-27 22:00:00,53.6,46.3,29.64,North,0,0.0,0.0,76,0.00,,,0.00,WUHU216HW,2013-03-28 05:00:00,
2013-03-27 22:30:00,52.6,45.9,29.64,North,0,0.0,0.0,78,0.00,,,0.00,WUHU216HW,2013-03-28 05:30:00,
2013-03-27 22:35:00,52.6,45.9,29.64,North,0,0.0,0.0,78,0.00,,,0.00,WUHU216HW,2013-03-28 05:35:00,
2013-03-27 22:40:00,52.6,45.9,29.64,North,0,0.0,0.0,78,0.00,,,0.00,WUHU216HW,2013-03-28 05:40:00,
2013-03-27 23:00:00,52.2,45.9,29.64,North,0,0.0,0.0,79,0.00,,,0.00,WUHU216HW,2013-03-28 06:00:00,
2013-03-27 23:05:00,52.2,45.9,29.64,North,0,0.0,0.0,79,0.00,,,0.00,WUHU216HW,2013-03-28 06:05:00,
2013-03-27 23:30:00,51.8,45.9,29.64,North,0,0.0,0.0,80,0.00,,,0.00,WUHU216HW,2013-03-28 06:30:00,
2013-03-27 23:35:00,51.8,45.9,29.64,North,0,0.0,0.0,80,0.00,,,0.00,WUHU216HW,2013-03-28 06:35:00,